User: anonymous   Login
Location: Ammerl�gen
(47.2167°N, 9.6000°E)
Time: 04:04:25
(UTC+00:00)
Language:

Envisat - Orbit

View from above orbital plane
View from above orbital plane
View from above satellite
View from above satellite

Ground track
Ground track

The orbit data is extracted from the following two-line orbital elements,

1 27386U 02009A   21300.85749146  .00000080  00000-0  39824-4 0  9995
2 27386  98.1609 288.2244 0001241  91.8261 330.0022 14.38049839 30109
Epoch (UTC): 27 October 2021 20:34:47
Eccentricity: 0.0001241
inclination: 98.1609°
perigee height: 764 km
apogee height: 766 km
right ascension of ascending node: 288.2244°
argument of perigee: 91.8261°
revolutions per day: 14.38049839
mean anomaly at epoch: 330.0022°
orbit number at epoch: 3010

The dashed part of the orbit path shows where the satellite is in the earth's shadow,  

DLR